Weather History for KLWC - April, 2013

Change the Weather History Date:

Monday, April 1, 2013

  Actual Average Record
Temperature  
Mean Temperature 40 °F 50 °F  
Max Temperature 50 °F 63 °F 88 °F (2012)
Min Temperature 29 °F 38 °F 25 °F (2009)
Degree Days  
Heating Degree Days 25 15  
Month to date heating degree days 25 15  
Since 1 July heating degree days 4672 4671  
Cooling Degree Days 0 0  
Month to date cooling degree days 0 0  
Year to date cooling degree days 0 3  
Moisture  
Dew Point 22 °F    
Average Humidity 51    
Maximum Humidity 76    
Minimum Humidity 25    
Precipitation  
Precipitation 0.00 in 0.07 in 0.00 in (2015)
Month to date precipitation 0.00 0.07  
Year to date precipitation 4.40 5.00  
Sea Level Pressure  
Sea Level Pressure 30.23 in    
Wind  
Wind Speed 11 mph (North)    
Max Wind Speed 22 mph    
Max Gust Speed 29 mph    
Visibility 10 miles    
Events      
T = Trace of Precipitation, MM = Missing Value Source: NWS Daily Summary

Daily Weather History Graph

Daily Weather History Graph

Search for Another Location

Airport or City:

Trip Planner

Search our weather history database for the weather conditions in past years. The results will help you decide how hot, cold, wet, or windy it might be!

Date:

Astronomy

Apr. 01, 2013 Rise Set
Actual Time 7:05 AM CDT 7:44 PM CDT
Civil Twilight 6:38 AM CDT 8:11 PM CDT
Nautical Twilight 6:06 AM CDT 8:43 PM CDT
Astronomical Twilight 5:33 AM CDT 9:16 PM CDT
Moon 12:51 AM CDT (4/1) 10:54 AM CDT (4/1)
Length of Visible Light 13h 33m
Length of Day
12h 39m
Waning Gibbous, 67% of the Moon is Illuminated
Apr 1
Waning Gibbous
Apr 2
Last Quarter
Apr 10
New
Apr 18
First Quarter
Apr 25
Full

Hourly Weather History & Observations

Time (CDT) Temp. Windchill Dew Point Humidity Pressure Visibility Wind Dir Wind Speed Gust Speed Precip Events Conditions
12:52 AM 51.1 °F - 28.9 °F 43% 30.02 in 10.0 mi NNE 16.1 mph 21.9 mph N/A   Overcast
1:52 AM 46.9 °F - 30.0 °F 52% 30.07 in 10.0 mi NNE 10.4 mph 21.9 mph N/A   Scattered Clouds
2:52 AM 44.1 °F 37.4 °F 32.0 °F 63% 30.10 in 9.0 mi NNE 13.8 mph - N/A   Mostly Cloudy
3:52 AM 43.0 °F 36.4 °F 34.0 °F 71% 30.12 in 9.0 mi NNE 12.7 mph 20.7 mph N/A   Mostly Cloudy
4:31 AM 42.8 °F 36.2 °F 33.8 °F 70% 30.14 in 8.0 mi North 12.7 mph - N/A   Overcast
4:52 AM 41.0 °F 33.9 °F 34.0 °F 76% 30.15 in 8.0 mi NNE 12.7 mph - N/A   Overcast
5:43 AM 39.2 °F 30.5 °F 32.0 °F 75% 30.18 in 10.0 mi NNE 16.1 mph - N/A   Overcast
5:52 AM 37.9 °F 30.5 °F 30.9 °F 76% 30.19 in 10.0 mi North 11.5 mph - N/A   Overcast
6:43 AM 35.6 °F 27.5 °F 28.4 °F 75% 30.22 in 10.0 mi North 11.5 mph - N/A   Overcast
6:52 AM 35.1 °F 26.9 °F 27.0 °F 72% 30.24 in 10.0 mi North 11.5 mph - N/A   Overcast
7:22 AM 33.8 °F 25.8 °F 26.6 °F 75% 30.25 in 10.0 mi North 10.4 mph - N/A   Scattered Clouds
7:52 AM 34.0 °F 28.0 °F 24.1 °F 67% 30.27 in 10.0 mi North 6.9 mph - N/A   Clear
8:52 AM 36.0 °F 27.1 °F 18.0 °F 48% 30.29 in 10.0 mi North 13.8 mph - N/A   Clear
9:52 AM 37.9 °F 30.5 °F 19.0 °F 47% 30.30 in 10.0 mi North 11.5 mph 19.6 mph N/A   Partly Cloudy
10:52 AM 39.9 °F 32.9 °F 12.9 °F 33% 30.30 in 10.0 mi NNE 11.5 mph 19.6 mph N/A   Clear
11:52 AM 43.0 °F 37.7 °F 12.0 °F 28% 30.32 in 10.0 mi NNE 9.2 mph 24.2 mph N/A   Clear
12:52 PM 44.1 °F 38.1 °F 12.0 °F 27% 30.29 in 10.0 mi NNW 11.5 mph - N/A   Partly Cloudy
1:52 PM 45.0 °F 40.1 °F 12.9 °F 27% 30.31 in 10.0 mi NNE 9.2 mph 18.4 mph N/A   Overcast
2:52 PM 46.0 °F 40.2 °F 12.9 °F 26% 30.29 in 10.0 mi North 12.7 mph - N/A   Mostly Cloudy
3:52 PM 48.0 °F - 15.1 °F 27% 30.27 in 10.0 mi North 13.8 mph 24.2 mph N/A   Partly Cloudy
4:52 PM 46.9 °F - 16.0 °F 29% 30.25 in 10.0 mi North 8.1 mph 20.7 mph N/A   Overcast
5:52 PM 48.0 °F - 16.0 °F 28% 30.24 in 10.0 mi North 9.2 mph - N/A   Partly Cloudy
6:52 PM 45.0 °F 39.7 °F 16.0 °F 31% 30.24 in 10.0 mi North 10.4 mph - N/A   Clear
7:52 PM 39.9 °F 34.5 °F 17.1 °F 40% 30.25 in 10.0 mi North 8.1 mph - N/A   Clear
8:52 PM 34.0 °F 28.8 °F 18.0 °F 52% 30.27 in 10.0 mi North 5.8 mph - N/A   Clear
9:52 PM 32.0 °F 24.8 °F 19.0 °F 59% 30.30 in 10.0 mi North 8.1 mph - N/A   Clear
10:52 PM 35.1 °F 28.6 °F 18.0 °F 50% 30.32 in 10.0 mi North 8.1 mph - N/A   Clear
11:52 PM 33.1 °F 25.5 °F 17.1 °F 52% 30.31 in 10.0 mi North 9.2 mph - N/A   Clear